Location: Trondheim
(63.4170°N, 10.4170°E)
Time: 04:57:15
(UTC+01:00)

Iridium 82 - Visible Passes

Search period start: 31 January 2015 00:00
Search period end: 10 February 2015 00:00
Orbit: 776 x 779 km, 86.4° (Epoch: 29 January)

Date Brightness Start Highest point End Pass type
(mag) Time Alt. Az. Time Alt. Az. Time Alt. Az.
31 Jan 7.9 02:30:34 10° N 02:34:13 19° NE 02:35:33 17° ENE visible
31 Jan 6.0 04:10:57 10° N 04:15:58 59° ENE 04:15:58 59° ENE visible
31 Jan 6.0 05:51:57 10° NNW 05:56:23 37° WNW 05:56:23 37° WNW visible
31 Jan 7.3 07:34:45 10° NW 07:36:11 11° WNW 07:36:48 11° WNW visible
31 Jan 5.5 17:20:04 10° S 17:25:15 72° E 17:30:30 10° N visible
31 Jan 7.3 19:01:48 10° SW 19:06:30 32° WNW 19:11:12 10° N visible
31 Jan 8.5 20:47:13 10° WNW 20:49:05 12° NW 20:50:48 10° NNW visible
01 Feb 8.2 01:57:22 10° NNE 02:00:07 14° NE 02:01:31 13° ENE visible
01 Feb 6.7 03:37:26 10° N 03:41:57 41° NE 03:41:57 41° NE visible
01 Feb 5.8 05:18:16 10° NNW 05:22:23 47° NW 05:22:23 47° NW visible
01 Feb 7.0 07:00:04 10° NNW 07:02:49 16° WNW 07:02:49 16° WNW visible
01 Feb 6.7 18:27:40 10° SW 18:32:41 45° WNW 18:37:43 10° N visible
01 Feb 8.3 20:11:49 10° W 20:14:54 15° NW 20:17:52 10° N visible
02 Feb 8.5 01:24:36 10° NNE 01:25:55 11° NE 01:27:23 10° NE visible
02 Feb 7.2 03:03:58 10° N 03:08:07 30° NE 03:08:07 30° NE visible
02 Feb 5.9 04:44:38 10° N 04:48:34 51° NNW 04:48:34 51° NNW visible
02 Feb 6.8 06:26:01 10° NNW 06:29:00 21° NW 06:29:00 21° NW visible
02 Feb 6.0 17:53:46 10° SSW 17:58:58 65° WNW 18:04:12 10° N visible
02 Feb 8.0 19:36:56 10° W 19:40:48 20° NW 19:44:37 10° N visible
03 Feb 7.7 02:30:33 10° N 02:34:23 22° NE 02:34:23 22° NE visible
03 Feb 6.2 04:11:03 10° N 04:14:50 48° N 04:14:50 48° N visible
03 Feb 6.6 05:52:10 10° NNW 05:55:17 26° NW 05:55:17 26° NW visible
03 Feb 5.6 17:20:06 10° S 17:25:20 89° ESE 17:30:38 10° N visible
03 Feb 7.6 19:02:23 10° WSW 19:06:49 27° WNW 19:11:14 10° N visible
04 Feb 8.0 01:57:14 10° N 02:00:33 17° NE 02:00:43 17° NE visible
04 Feb 6.7 03:37:30 10° N 03:41:11 40° NNE 03:41:11 40° NNE visible
04 Feb 6.4 05:18:26 10° NNW 05:21:38 32° NW 05:21:38 32° NW visible
04 Feb 7.3 07:00:40 10° NW 07:02:05 12° NW 07:02:05 12° NW visible
04 Feb 7.1 18:28:05 10° SW 18:32:56 37° WNW 18:37:47 10° N visible
04 Feb 8.4 20:12:56 10° WNW 20:15:21 13° NW 20:17:40 10° NNW visible
05 Feb 8.3 01:24:07 10° NNE 01:26:25 13° NE 01:27:06 13° NE visible
05 Feb 7.1 03:04:00 10° N 03:07:34 32° NE 03:07:34 32° NE visible
05 Feb 6.4 04:44:46 10° N 04:48:01 37° NNW 04:48:01 37° NNW visible
05 Feb 7.1 06:26:22 10° NNW 06:28:28 16° NW 06:28:28 16° NW visible
05 Feb 6.4 17:54:02 10° SSW 17:59:09 52° WNW 18:04:17 10° N visible
05 Feb 8.2 19:37:47 10° W 19:41:12 17° NW 19:44:32 10° N visible
06 Feb 7.5 02:30:33 10° N 02:33:59 25° NE 02:33:59 25° NE visible
06 Feb 6.4 04:11:10 10° N 04:14:26 40° N 04:14:26 40° N visible
06 Feb 6.9 05:52:25 10° NNW 05:54:54 21° NW 05:54:54 21° NW visible
06 Feb 5.8 17:20:14 10° SSW 17:25:28 75° W 17:30:44 10° N visible
06 Feb 7.9 19:03:02 10° WSW 19:07:09 23° NW 19:11:14 10° N visible
07 Feb 7.8 01:57:10 10° N 02:00:25 20° NE 02:00:25 20° NE visible
07 Feb 6.7 03:37:35 10° N 03:40:53 38° N 03:40:53 38° N visible
07 Feb 6.7 05:18:37 10° NNW 05:21:20 26° NW 05:21:20 26° NW visible
07 Feb 7.4 18:28:35 10° SW 18:33:12 30° WNW 18:37:49 10° N visible
07 Feb 8.5 20:14:22 10° NW 20:15:51 11° NW 20:17:11 10° NNW visible
08 Feb 8.1 01:23:54 10° N 01:26:52 15° NE 01:26:52 15° NE visible
08 Feb 7.0 03:04:03 10° N 03:07:20 33° NNE 03:07:20 33° NNE visible
08 Feb 6.6 04:44:55 10° NNW 04:47:48 31° NNW 04:47:48 31° NNW visible
08 Feb 7.3 06:26:50 10° NNW 06:28:16 13° NW 06:28:16 13° NW visible
08 Feb 6.8 17:54:23 10° SW 17:59:21 42° WNW 18:04:20 10° N visible
08 Feb 8.3 19:38:47 10° WNW 19:41:39 14° NW 19:44:24 10° NNW visible
09 Feb 8.3 00:50:58 10° NNE 00:52:41 12° NE 00:53:21 11° NE visible
09 Feb 7.4 02:30:34 10° N 02:33:49 28° NE 02:33:49 28° NE visible
09 Feb 6.6 04:11:17 10° N 04:14:16 35° NNW 04:14:16 35° NNW visible
09 Feb 7.1 05:52:43 10° NNW 05:54:44 17° NW 05:54:44 17° NW visible
09 Feb 6.2 17:20:26 10° SSW 17:25:37 60° WNW 17:30:49 10° N visible
09 Feb 8.1 19:03:48 10° W 19:07:32 19° NW 19:11:11 10° N visible
